User: anonymous
Location: Mentone
(34.5413°N, 85.5351°W)
Time: 00:22:44
(UTC-05:00)
Language:

Cosmos 2026 Rocket - Orbit

View from above orbital plane
View from above orbital plane
View from above satellite
View from above satellite

Ground track
Ground track

The orbit data is extracted from the following two-line orbital elements,

1 20046U 89042B   14209.83240876  .00000162  00000-0  14482-3 0  3354
2 20046 082.9389 008.8327 0043179 143.6234 326.4720 13.77968680264043
Epoch (UTC): 28 July 2014 19:58:40
Eccentricity: 0.0043179
inclination: 82.9389°
perigee height: 939 km
apogee height: 1003 km
right ascension of ascending node: 8.8327°
argument of perigee: 143.6234°
revolutions per day: 13.77968680
mean anomaly at epoch: 326.4720°
orbit number at epoch: 26404

The dashed part of the orbit path shows where the satellite is in the earth's shadow,  

DLR